MOLNIYA 1-32

Last updated on Nov. 13, 2019, 4:21 a.m. UTC

1 08601U 76006A   19314.63325469  .00000348  00000-0 -16504-2 0  9994
2 08601  62.4362  84.5865 7354258 276.5546  12.3139  2.00085927 33711
UTC
Height (km)
Latitude
Longitude
Inclination
Orbital Period
UTC large
Height (km)
Speed (km/s)
/
Latitude / Longitude
Inclination (degrees)
Orbital Period (minutes)
Azimuth
Elevation
Range (km)
Doppler Factor
iOS Compass Heading
iOS Angle

Next 30 passes for location: Hong Kong

Rise time Rise Azimuth (degrees) Set time Set Azimuth (degrees) Duration Max altitude (degrees)

No matching passes for this satellites